Location: São Paulo
(23.5507°S, 46.6334°W)
Time: 12:35:04
(UTC-03:00)

X-37B - Pass Details

Date: 08 August 2021
Orbit: 381 x 393 km, 45.0° (Epoch: 29 August)

Event Time Altitude Azimuth Distance (km) Brightness Sun altitude
Rises 19:33:36 0° 233° (SW) 2,301 5.2 -24.6°
Reaches altitude 10° 19:35:43 10° 237° (WSW) 1,437 4.1 -25.1°
Enters shadow 19:37:12 24° 246° (WSW) 861 2.9 -25.4°
